This demonstration page uses our WeatherBlox Daily Observations layout. Learn more.

Left ArrowRight Arrow

Hourly Observations for June 2, 2016

Temp ( °F °C ) Dew Point ( °F °C ) Humidity (%) Winds ( mph kmh ) Pressure ( in mb ) Visibility ( mi km ) Precip ( " mm )
12:52 am 00:52 Clear 65 18.3 61 16.1 87 87 SW 3 6 29.99 1016 10 16 0.00 0.00
1:52 am 01:52 Mostly Cloudy 66 18.9 62 16.7 87 87 ESE 3 6 29.98 1015 10 16 0.00 0.00
2:52 am 02:52 Clear 64 17.8 61 16.1 90 90 Calm 29.98 1015 10 16 0.00 0.00
3:52 am 03:52 Clear 64 17.8 62 16.7 93 93 Calm 30.00 1016 7 11 0.00 0.00
4:52 am 04:52 Partly Cloudy 64 17.8 62 16.7 93 93 N 7 11 30.01 1016 9 14 0.00 0.00
5:52 am 05:52 Cloudy 65 18.3 62 16.7 90 90 N 3 6 30.02 1017 9 14 0.00 0.00
6:52 am 06:52 Cloudy 67 19.4 64 17.8 91 91 Calm 30.03 1017 10 16 0.01 0.25
7:52 am 07:52 Cloudy with Light Rain 67 19.4 64 17.8 91 91 NW 3 6 30.05 1018 10 16 0.00 0.03
8:52 am 08:52 Cloudy 71 21.7 64 17.8 79 79 E 6 9 30.05 1018 10 16 0.00 0.03
9:52 am 09:52 Sunny 73 22.8 60 15.6 64 64 E 12 19 30.05 1018 10 16 0.00 0.00
10:52 am 10:52 Sunny 74 23.3 62 16.7 67 67 E 9 15 30.06 1018 10 16 0.00 0.00
11:52 am 11:52 Mostly Cloudy 76 24.4 60 15.6 58 58 ENE 14 22 30.05 1018 10 16 0.00 0.00
12:52 pm 12:52 Mostly Sunny 77 25 60 15.6 56 56 NE 15 24 30.05 1018 10 16 0.00 0.00
1:52 pm 13:52 Sunny 79 26.1 59 15 50 50 NE 16 26 30.02 1017 10 16 0.00 0.00
2:52 pm 14:52 Mostly Sunny 79 26.1 61 16.1 54 54 ENE 13 20 30.01 1016 10 16 0.00 0.00
3:52 pm 15:52 Mostly Sunny 81 27.2 61 16.1 51 51 NE 15 24 30.00 1016 10 16 0.00 0.00
4:52 pm 16:52 Sunny 81 27.2 60 15.6 49 49 ENE 10 17 29.99 1016 10 16 0.00 0.00
5:52 pm 17:52 Mostly Sunny 78 25.6 60 15.6 54 54 E 12 19 29.98 1015 10 16 0.00 0.00
6:52 pm 18:52 Sunny 76 24.4 61 16.1 60 60 ENE 8 13 29.99 1016 10 16 0.00 0.00
7:52 pm 19:52 Sunny 75 23.9 63 17.2 66 66 NE 9 15 30.00 1016 10 16 0.00 0.00
8:52 pm 20:52 Cloudy 74 23.3 63 17.2 69 69 E 8 13 30.00 1016 10 16 0.00 0.00
9:52 pm 21:52 Mostly Clear 73 22.8 64 17.8 74 74 E 6 9 30.01 1016 10 16 0.00 0.00
10:52 pm 22:52 Clear 73 22.8 64 17.8 74 74 E 9 15 30.02 1017 10 16 0.00 0.00
11:52 pm 23:52 Clear 71 21.7 64 17.8 79 79 E 6 9 30.02 1017 10 16 0.00 0.00

Powered by AerisWeather